Regional Weather Roundup
Issued by NWS

Home | Current Version | Previous Version | Text Only | Print | Product List | Glossary On
Versions: 1 2 3 4 5 6 7 8 9 10 11 12 13 14 15 16 17 18 19 20 21 22 23 24 25 26 27 28 29 30 31 32 33 34 35 36 37 38 39 40 41 42 43 44 45 46 47 48 49 50
000
ASUS42 KFFC 151010
RWRGA
WEATHER ROUNDUP FOR GEORGIA
NATIONAL WEATHER SERVICE PEACHTREE CITY GA
500 AM EST FRI DEC 15 2017

NOTE: "FAIR" INDICATES FEW OR NO CLOUDS BELOW 12,000 FEET WITH NO
SIGNIFICANT WEATHER AND/OR OBSTRUCTIONS TO VISIBILITY.

* = USE WITH CAUTION. THE STATIONS MARKED WITH AN ASTERISK MAY NOT
REPORT WEATHER SUCH AS PRECIPITATION, FOG, OR THUNDER AND ARE NOT
QUALITY CONTROLLED BY NWS.

THE REMARK "TC" DENOTES TEMPERATURE READING IN DEGREES CELSIUS.

GAZ001>058-151100-
NORTH GEORGIA

CITY           SKY/WX    TMP DP  RH WIND       PRES   REMARKS
ATLANTA        MOCLDY    39  33  79 NW6       29.99R WCI  35
ATHENS         CLOUDY    37  34  89 CALM      29.96F
CHAMBLEE       CLOUDY    38  30  73 W6        29.99R WCI  33
PEACHTREE CITY CLOUDY    34  33  96 CALM      30.00S
ROME           CLEAR     35  29  78 N3        30.03S
WEST ATLANTA   CLOUDY    39  31  72 NW5       30.01R
GAINESVILLE    CLOUDY    39  32  76 W6        29.96F WCI  35
CARTERSVILLE   CLEAR     35  29  78 CALM      30.04R


CITY           SKY/WX    TMP DP  RH WIND       PRES   REMARKS
DALTON*        PTCLDY    32  28  86 CALM      30.05S
LAWRENCEVILLE* CLOUDY    39  32  76 W3        29.97F
MARIETTA       PTCLDY    38  28  67 NW9       29.99R WCI  31
KENNESAW*      CLEAR     37  28  70 NW6       30.01S WCI  32
CANTON*        CLEAR     36  32  87 W7        29.99S WCI  30
$$

GAZ059>098-102>109-151100-
CENTRAL GEORGIA

CITY           SKY/WX    TMP DP  RH WIND       PRES   REMARKS
AUGUSTA-BUSH   MOCLDY    37  36  96 CALM      29.98F
AUGUSTA-DANIEL PTCLDY    46  37  71 CALM      29.98F
COLUMBUS       PTCLDY    38  35  89 CALM      30.01F
MACON          CLOUDY    36  36 100 W3        30.00F FOG
ROBINS AFB     CLEAR     38  37  96 CALM      29.99F


CITY           SKY/WX    TMP DP  RH WIND       PRES   REMARKS
LAGRANGE*      PTCLDY    34  33  97 CALM      30.01S
SYLVANIA*      PTCLDY    43  42  97 CALM      30.01F
MILLEDGEVILLE* CLOUDY    37  37 100 CALM      29.99F
$$

GAZ099>101-110>166-151100-
SOUTH GEORGIA

CITY           SKY/WX    TMP DP  RH WIND       PRES   REMARKS
SAVANNAH       MOCLDY    47  39  74 CALM      30.01F
VALDOSTA       MOCLDY    47  46  97 CALM      30.02F
ALMA           CLOUDY    43  41  93 CALM      30.01F
ST SIMONS      CLOUDY    51  47  86 W3        30.02R
FT STEWART     MOCLDY    44  40  85 CALM      29.99F
ALBANY         CLEAR     38  36  92 CALM      30.04R
HUNTER AFB     MOCLDY    46  41  81 VRB7      29.98F
MOODY AFB      MOCLDY    47  47  99 CALM      30.01S
BRUNSWICK      CLOUDY    48  41  76 CALM      30.03S


CITY           SKY/WX    TMP DP  RH WIND       PRES   REMARKS
BAINBRIDGE*    CLOUDY    45  45 100 CALM      30.03R
MOULTRIE*      CLEAR     45  43  93 CALM      30.03R
VIDALIA*       PTCLDY    45  41  87 CALM      30.01S
WAYCROSS*      CLOUDY    45  42  90 CALM      30.02S
DOUGLAS*       CLOUDY    43  43 100 CALM      30.03F
$$



USA.gov is the U.S. government's official web portal to all federal, state and local government web resources and services.